sat.trackr.live / text

‹ back to catalog

STARLINK-11185 [DTC]

NORAD 62588 · 2025-008B

PAYLOAD ACTIVE UNKNOWN

§ Identity

Operator
Country
US
Launch date
2025-01-13
Launch site
AFETR
Launch vehicle
Mass (kg)
RCS (m²)

Purposes: comms

External: N2YO · Heavens-Above · Gunter

§ Orbital elements

Epoch: 2026-09-21T13:38:51.502560Z

Period
91.68 min
Inclination
42.9996°
Eccentricity
0.0001672
Mean motion
15.70765308 rev/d
Perigee alt
355.6 km
Apogee alt
357.8 km
Semi-major
6,734.8 km
B*
1.4375e-3
RAAN
25.2273°
Arg perigee
273.2352°
Mean anomaly
86.8324°
Rev number
9,692

§ Raw data

STARLINK-11185 [DTC]1 62588U 25008B   26264.56865165  .00187636  00000+0  14375-2 0  99982 62588  42.9996  25.2273 0001672 273.2352  86.8324 15.70765308 96920

JSON: /api/v1/satellites/62588 · /tle

For live sub-satellite position, see the globe view (requires WebGL).

§ Visibility from observer

Set your observer location to see the next 7 days of passes ≥ 10°. The values pass through the URL so the page stays shareable.

No JS? Fill the form by hand. The geolocation button needs JavaScript.